Regional Weather Roundup
Issued by NWS

Home | Current Version | Previous Version | Text Only | Print | Product List | Glossary Off
Versions: 1 2 3 4 5 6 7 8 9 10 11 12 13 14 15 16 17 18 19 20 21 22 23 24 25 26 27 28 29 30 31 32 33 34 35 36 37 38 39 40 41 42 43 44 45 46 47 48 49 50

000
ASUS43 KMPX 270010
RWRMN
WEATHER ROUNDUP FOR MINNESOTA
NATIONAL WEATHER SERVICE TWIN CITIES/CHANHASSEN MN
600 PM CST FRI DEC 26 2014


NOTE: "FAIR" INDICATES FEW OR NO CLOUDS BELOW 12,000 FEET WITH NO
SIGNIFICANT WEATHER AND/OR OBSTRUCTIONS TO VISIBILITY. N/A MEANS
CURRENT SKY AND/OR WEATHER CONDITIONS ARE NOT AVAILABLE.

MNZ060>063-068>070-270100-
   Twin Cities Metro

CITY           SKY/WX    TMP DP  RH WIND       PRES   REMARKS
TWIN CITIES    CLOUDY    31  24  75 N9        30.06S WCI  23
6HR MIN TEMP:  31; 6HR MAX TEMP:  32;

ST PAUL        CLOUDY    31  25  78 N13G18    30.07S WCI  21
CRYSTAL        CLOUDY    31  25  78 N8        30.05S WCI  23
BLAINE         CLOUDY    30  28  93 N9        30.06R WCI  22
LAKEVILLE      CLOUDY    28  27  93 N6        30.04S WCI  22
EDEN PRAIRIE   CLOUDY    31  24  75 N9        30.04S WCI  23
6HR MIN TEMP:  31; 6HR MAX TEMP:  32;

SOUTH ST PAUL  CLOUDY    32  26  79 N9        30.05S WCI  24
LAKE ELMO      CLOUDY    32  28  86 N6        30.05F WCI  26
$$
MNZ001>005-007-008-013>017-022>024-027-028-270100-
   Northwest Minnesota

CITY           SKY/WX    TMP DP  RH WIND       PRES   REMARKS
BEMIDJI        FLURRIES  21  17  81 NW8       30.12S WCI  12
HALLOCK        FLURRIES  10   7  85 NW9       30.23R WCI  -2
ROSEAU         FLURRIES  18  10  73 NW6       30.18R WCI   9
WARROAD        FLURRIES  16  10  79 NW7       30.17S WCI   6
THIEF RVR FALL CLOUDY    14  10  85 NW9       30.19S WCI   2
CROOKSTON      CLEAR     10   7  85 NW9       30.23S WCI  -2
FOSSTON        CLOUDY    18  12  79 NW12      30.16S WCI   5
DETROIT LAKES  CLOUDY    21  19  93 NW14      30.14S WCI   8
MOORHEAD       LGT RAIN  21  18  86 N15       30.21R WCI   8
PARK RAPIDS    CLOUDY    24  14  65 N12       30.10S WCI  13
MAHNOMEN       FLURRIES  19  15  86 N9        30.15F WCI   8
$$
MNZ006-009>011-018-025>026-270100-
   North Central Minnesota

CITY           SKY/WX    TMP DP  RH WIND       PRES   REMARKS
BAUDETTE       CLOUDY    18  11  74 NW5       30.15R WCI  11
FLAG ISLAND    CLOUDY    12   9  85 NW15      30.17R WCI  -4
INTL FALLS     CLOUDY    20  13  74 NW10      30.13R WCI   9
6HR MIN TEMP:  20; 6HR MAX TEMP:  24; 6HR PCP: TRACE;

WASKISH        CLOUDY    19  16  86 CALM      30.14
BIG FORK       FLURRIES  21  16  79 NW5       30.12S WCI  15
LONGVILLE      CLOUDY    21  18  86 N3        30.12R
GRAND RAPIDS   CLOUDY    21  16  79 N7        30.10R WCI  13
CRANE LAKE     CLOUDY    21  18  86 N6        30.13S WCI  14
ORR            CLOUDY    21  16  79 CALM      30.08S
COOK           CLOUDY    21  18  86 CALM      30.09F
WALKER         CLOUDY    21  15  76 CALM      30.11F
$$
MNZ012-019>021-037-270100-
   Northeast Minnesota

CITY           SKY/WX    TMP DP  RH WIND       PRES   REMARKS
DULUTH         CLOUDY    28  21  75 N6        30.06S WCI  22
6HR MIN TEMP:  28; 6HR MAX TEMP:  30; 6HR PCP:  0.01;

ELY            CLOUDY    25  19  80 NW6       30.07S WCI  18
HIBBING        CLOUDY    24  17  74 NW7       30.09R WCI  16
EVELETH        MOCLDY    27  19  74 NW3       30.10R
DULUTH HARBOR  CLOUDY    34  25  69 N9        30.11S WCI  26
TWO HARBORS    CLOUDY    30  27  86 CALM      30.06S
SILVER BAY     CLOUDY    30  19  64 N3        30.06S
GRAND MARAIS     N/A     31  22  69 N6        30.08R WCI  25
G MARAIS ARPRT CLOUDY    21  18  86 CALM      30.04S
$$
MNZ029>031-032-039>041-046>048-054>057-064-270100-
   West Central Minnesota

CITY           SKY/WX    TMP DP  RH WIND       PRES   REMARKS
FERGUS FALLS   CLOUDY    21  16  79 N8        30.19R WCI  12
WHEATON        CLOUDY    21  18  86 NW12      30.19R WCI   9
MORRIS         MOCLDY    25  19  80 N12       30.14R WCI  14
ALEXANDRIA     CLOUDY    24  18  77 N14       30.11R WCI  12
ELBOW LAKE     CLOUDY    23  18  82 N12       30.14R WCI  12
WADENA         CLOUDY    21  18  86 N7        30.12R WCI  13
GLENWOOD       CLOUDY    25  19  80 N8        30.11S WCI  16
APPLETON       CLOUDY    27  21  80 N14       30.14R WCI  15
BENSON         CLOUDY    25  19  80 NE9       30.13R WCI  15
ORTONVILLE     CLOUDY    25  18  74 N13       30.15S WCI  13
MADISON        CLOUDY    28  25  86 N14       30.14R WCI  17
WILLMAR        CLOUDY    28  21  74 N12       30.11R WCI  18
$$
MNZ033>034-036-042>043-049>051-058-059-270100-
   Central Minnesota

CITY           SKY/WX    TMP DP  RH WIND       PRES   REMARKS
ST CLOUD       CLOUDY    31  20  63 N8        30.08S WCI  23
6HR MIN TEMP:  31; 6HR MAX TEMP:  33;

SAUK CENTRE    CLOUDY    25  20  80 N8        30.10R WCI  16
PAYNESVILLE    CLOUDY    24  21  87 NW6       30.09S WCI  17
AITKIN         CLOUDY    28  19  69 N8        30.08S WCI  20
PINE RIVER     CLOUDY    21  18  86 N12       30.14S WCI   9
BRAINERD       CLOUDY    25  17  72 N9        30.10R WCI  15
STAPLES        CLOUDY    23  16  74 NE8       30.12R WCI  14
LONG PRAIRIE   CLOUDY    25  19  80 N8        30.10R WCI  16
LITTLE FALLS   CLOUDY    27  19  74 N5        30.11R WCI  21
LITCHFIELD     CLOUDY    28  25  86 N9        30.08S WCI  20
BUFFALO        CLOUDY    29  24  80 N9        30.07S WCI  21
MAPLE LAKE     CLOUDY    29  26  86 N9        30.08S WCI  21
$$
MNZ037-044-045-052-053-270100-
   East Central Minnesota

CITY           SKY/WX    TMP DP  RH WIND       PRES   REMARKS
PRINCETON      CLOUDY    30  25  80 N9        30.08F WCI  22
MORA           CLOUDY    28  21  74 CALM      30.10S
CAMBRIDGE      CLOUDY    30  21  69 N5        30.06S WCI  25
RUSH CITY      CLOUDY    30  24  80 N7        30.07F WCI  23
MOOSE LAKE     CLOUDY    28  21  74 N6        30.07R WCI  22
HINCKLEY       CLOUDY    30  23  74 CALM      30.08S
CLOQUET        CLOUDY    27  19  74 NW7       30.08R WCI  19
MCGREGOR       CLOUDY    28  21  74 N10       30.09S WCI  19
$$
MNZ071>073-080-081-089-090-097-098-270100-
   Southwest Minnesota

CITY           SKY/WX    TMP DP  RH WIND       PRES   REMARKS
MONTEVIDEO     CLOUDY    25  21  86 N10       30.13R WCI  15
GRANITE FALLS  CLOUDY    27  22  83 N9        30.13R WCI  17
CANBY          CLOUDY    24  22  92 NW12      30.14R FOG     WCI  13
MARSHALL       CLOUDY    25  19  80 N16       30.11R WCI  12
REDWOOD FALLS  CLOUDY    29  22  75 N12       30.10R WCI  19
OLIVIA         CLOUDY    28  25  86 N10       30.09R WCI  19
PIPESTONE      LGT SNOW  23  21  93 N12       30.08R WCI  12
WINDOM         FLURRIES  27  25  93 N14       30.07R WCI  15
WORTHINGTON    CLOUDY    25 -20  13 N15       30.06F WCI  12
JACKSON        CLOUDY    30  27  86 VRB12G20  30.04F WCI  21
TRACY          LGT SNOW  27  25  95 N10       30.10R WCI  17
SLAYTON        LGT SNOW  24  23  95 N10       30.07R WCI  14
$$
MNZ065>067-074>077-082>085-091>093-270100-
   South Central Minnesota

CITY           SKY/WX    TMP DP  RH WIND       PRES   REMARKS
MANKATO        CLOUDY    30  25  80 N9        30.07R WCI  22
NEW ULM        CLOUDY    28  25  86 N6        30.08R WCI  22
ST JAMES       CLOUDY    30  27  86 N8        30.09R WCI  23
FAIRMONT       CLOUDY    30  25  80 N15G21    30.04S WCI  19
GLENCOE        CLOUDY    31  27  86 N12       30.06R WCI  22
FARIBAULT      CLOUDY    30  27  86 N7        30.06R WCI  23
OWATONNA       CLOUDY    30  27  86 N8        30.05R WCI  23
WASECA         CLOUDY    32  28  86 VRB8      30.06R WCI  25
ALBERT LEA     CLOUDY    30  30 100 N14       30.01F WCI  20
$$
MNZ078>079-086>088-094>096-270100-
   Southeast Minnesota

CITY           SKY/WX    TMP DP  RH WIND       PRES   REMARKS
ROCHESTER      CLOUDY    32  29  88 N8        30.02R WCI  25
6HR MIN TEMP:  32; 6HR MAX TEMP:  33;

RED WING       CLOUDY    34  28  80 N3        30.03S
STANTON        CLOUDY    32  28  86 N12       30.03R WCI  23
DODGE CENTER   CLOUDY    32  30  93 N8        30.02R WCI  25
WINONA         CLOUDY    36  32  87 N5        30.02S
AUSTIN         CLOUDY    32  30  93 N9        30.01R WCI  24
PRESTON        CLOUDY    32  30  93 N9        30.00R FOG     WCI  24
$$
ABBREVIATIONS USED IN REMARKS
   TC - TEMPERATURES IN CELSIUS
  WCI - WIND CHILL INDEX
   HX - HEAT INDEX
  VSB - VISIBILITY
$$


USA.gov is the U.S. government's official web portal to all federal, state and local government web resources and services.